{"data":{"norad_id":57260,"intl_designator":"2023-094AU","name":"STARLINK-5026","alt_names":[],"object_type":"PAYLOAD","status":"ACTIVE","operator":null,"country":"US","launch_date":"2023-07-07","launch_site_code":"AFWTR","launch_vehicle":null,"mission":null,"orbit_class":"UNKNOWN","rcs_meters":null,"size_class":null,"mass_kg":null,"dimensions":null,"purposes":["comms"],"wikipedia_slug":null,"has_3d_model":false,"image_url":null,"decayed_at":null,"tle_current":{"epoch":"2026-05-24T19:30:51.090912Z","epoch_age_seconds":98163,"freshness":"FRESH","line1":"1 57260U 23094AU  26144.81309133  .00000209  00000+0  17106-4 0  9992","line2":"2 57260  43.0030 309.8386 0001138 258.6805 101.3919 15.27574543159525","mean_motion":15.27574543,"eccentricity":0.0001138,"inclination_deg":43.003,"raan_deg":309.8386,"arg_perigee_deg":258.6805,"mean_anomaly_deg":101.3919,"bstar":1.7106e-5,"rev_number":15952,"period_min":94.267085465563,"perigee_km":482.28463147219,"apogee_km":483.84624114669,"semimajor_km":6861.2024363094,"source":"CELESTRAK","updated_at":"2026-05-25T13:38:18.280949Z"}}}